TURKMENALEM52E/MONACOSAT

Last updated on Dec. 5, 2020, 6:14 a.m. UTC

1 40617U 15023A   20339.76142118  .00000120  00000-0  00000-0 0  9999
2 40617   0.0118 312.1611 0003537 300.3174 147.7115  1.00269847 20578
UTC
Height (km)
Latitude
Longitude
Inclination
Orbital Period
UTC large
Height (km)
Speed (km/s)
/
Latitude / Longitude
Inclination (degrees)
Orbital Period (minutes)
Azimuth
Elevation
Range (km)
Doppler Factor
iOS Compass Heading
iOS Angle

Next 30 passes for location: Hong Kong

Rise time Rise Azimuth (degrees) Set time Set Azimuth (degrees) Duration Max altitude (degrees)

No matching passes for this satellites